Printer-friendly version

IAU Minor Planet Center

Minor Planet Center

MPEC 2008-G12 : 2008 GG

The following Minor Planet Electronic Circular may be linked-to from your own Web pages, but must not otherwise be redistributed electronically.


Read MPEC 2008-G11 Read MPEC 2008-G13


M.P.E.C. 2008-G12                                Issued 2008 Apr. 2, 15:44 UT

     The Minor Planet Electronic Circulars contain information on unusual
         minor planets and routine data on comets.  They are published
   on behalf of Commission 20 of the International Astronomical Union by the
          Minor Planet Center, Smithsonian Astrophysical Observatory,
                          Cambridge, MA 02138, U.S.A.

             Prepared using the Tamkin Foundation Computer Network

                              MPC@CFA.HARVARD.EDU
          URL http://www.cfa.harvard.edu/iau/mpc.html  ISSN 1523-6714

                                    2008 GG

Observations:
     K08G00G* C2008 04 01.27102 13 00 34.74 +49 46 25.2          21.6 V EG012G96
     K08G00G  C2008 04 01.27653 13 00 33.12 +49 46 19.6          22.1 V EG012G96
     K08G00G  C2008 04 01.28207 13 00 31.60 +49 46 13.3          21.9 V EG012G96
     K08G00G  C2008 04 01.28757 13 00 29.98 +49 46 08.0          21.5 V EG012G96
     K08G00G  C2008 04 01.37137 13 00 05.29 +49 44 40.7          21.0 V EG012G96
     K08G00G  C2008 04 01.37778 13 00 03.38 +49 44 33.6          21.6 V EG012G96
     K08G00G  C2008 04 01.38410 13 00 01.54 +49 44 27.3          21.6 V EG012G96
     K08G00G  C2008 04 01.39056 12 59 59.71 +49 44 20.3          21.2 V EG012G96
     K08G00G 1C2008 04 01.39443 12 59 58.73 +49 44 13.3                 EG012658
     K08G00G 1C2008 04 01.39663 12 59 58.10 +49 44 10.8                 EG012658
     K08G00G 1C2008 04 01.39884 12 59 57.47 +49 44 08.4                 EG012658
     K08G00G  C2008 04 01.94943 12 57 22.90 +49 34 22.8                 EG012J95
     K08G00G  C2008 04 01.96908 12 57 17.20 +49 34 02.7          21.4 R EG012J95
     K08G00G  C2008 04 01.98222 12 57 13.31 +49 33 47.5          21.5 R EG012J95
     K08G00G  C2008 04 02.17985912 56 19.05 +49 30 15.7          22.2 V EG012H55
     K08G00G  C2008 04 02.18918412 56 16.48 +49 30 05.8          22.0 V EG012H55
     K08G00G  C2008 04 02.19801012 56 13.97 +49 29 56.6          22.1 V EG012H55

Observer details:
658 National Research Council of Canada.  Observers D. D. Balam, R. M. Robb.
    Measurers D. D. Balam, P. Wiegert, A. Domokos.  1.82-m Plaskett telescope
    + CCD.
G96 Mt. Lemmon Survey.  Observer A. Boattini.  Measurers E. C. Beshore,
    A. Boattini, G. J. Garradd, A. R. Gibbs, A. D. Grauer, R. E. Hill,
    R. A. Kowalski, S. M. Larson, R. H. McNaught.  1.5-m reflector + CCD.
H55 Astronomical Research Observatory, Charleston.  Observer R. Holmes.
    Measurers W. Ogloza, W. Kulynycz.  0.81-m f/4.0 astrograph + CCD.
J95 Great Shefford.  Observer P. Birtwhistle.  0.40-m f/6.0 Schmidt-Cassegrain
    + CCD.

Orbital elements:
2008 GG                                                  Earth MOID = 0.0937 AU
Epoch 2008 May 14.0 TT = JDT 2454600.5                  MPC
M 103.35523              (2000.0)            P               Q
n   0.79305612     Peri.  291.55182     +0.74388440     -0.59205719
a   1.1559351      Node   106.10530     +0.66723730     +0.68420514
e   0.7226732      Incl.   18.82451     -0.03782040     +0.42583049
P   1.24           H   20.7           G   0.15           U   9
Residuals in seconds of arc
080401 G96  0.8-  0.2+    080401 G96  0.4+  0.1+    080401 J95  0.1+  0.6+
080401 G96  0.7-  0.2+    080401 G96  1.1+  0.0     080401 J95  1.5-  0.5-
080401 G96  0.4+  0.5-    080401 658  0.7-  0.4+    080402 H55  0.0   0.1-
080401 G96  0.4+  0.2-    080401 658  0.5-  0.3+    080402 H55  0.6+  0.0
080401 G96  0.6+  0.1-    080401 658  0.4-  0.2+    080402 H55  0.4+  0.2+
080401 G96  0.3+  0.4-    080401 J95  1.2+  0.1-

Ephemeris:
2008 GG                  a,e,i = 1.16, 0.72, 19                  q = 0.3206
Date    TT    R. A. (2000) Decl.     Delta      r     Elong.  Phase     V
2008 03 25    13 41.16   +51 16.7    0.518    1.357   124.0    37.6    21.4
2008 03 26    13 34.90   +51 09.3    0.527    1.366   124.3    37.1    21.5
2008 03 27    13 28.85   +51 00.0    0.536    1.375   124.6    36.6    21.5
2008 03 28    13 23.02   +50 49.1    0.546    1.385   124.9    36.2    21.6
2008 03 29    13 17.41   +50 36.6    0.555    1.394   125.1    35.9    21.6
2008 03 30    13 12.01   +50 22.6    0.565    1.403   125.3    35.5    21.7
2008 03 31    13 06.84   +50 07.4    0.575    1.412   125.4    35.2    21.7
2008 04 01    13 01.88   +49 51.0    0.585    1.421   125.4    35.0    21.7
2008 04 02    12 57.14   +49 33.5    0.596    1.430   125.4    34.7    21.8
2008 04 03    12 52.61   +49 15.0    0.606    1.439   125.4    34.5    21.8
2008 04 04    12 48.30   +48 55.7    0.617    1.448   125.4    34.3    21.9
2008 04 05    12 44.18   +48 35.5    0.628    1.456   125.2    34.1    21.9
2008 04 06    12 40.27   +48 14.6    0.639    1.465   125.1    34.0    22.0
2008 04 07    12 36.55   +47 53.1    0.650    1.473   124.9    33.9    22.0
2008 04 08    12 33.02   +47 31.1    0.661    1.481   124.7    33.8    22.1
2008 04 09    12 29.67   +47 08.6    0.673    1.490   124.5    33.7    22.1
2008 04 10    12 26.51   +46 45.7    0.685    1.498   124.2    33.6    22.2
2008 04 11    12 23.51   +46 22.4    0.696    1.506   123.9    33.5    22.2
2008 04 12    12 20.68   +45 58.8    0.708    1.514   123.6    33.5    22.3
2008 04 13    12 18.00   +45 34.9    0.720    1.522   123.2    33.4    22.3
2008 04 14    12 15.48   +45 10.9    0.733    1.530   122.9    33.4    22.3

Timothy B. Spahr             (C) Copyright 2008 MPC           M.P.E.C. 2008-G12

Read MPEC 2008-G11 Read MPEC 2008-G13


Our Web policy. Index to the CBAT/MPC/ICQ pages.


Valid HTML 4.01!